This demonstration page uses our WeatherBlox Daily Observations layout. Learn more.

Left ArrowRight Arrow

Hourly Observations for January 21, 2019

Temp ( °F °C ) Dew Point ( °F °C ) Humidity (%) Winds ( mph kmh ) Pressure ( in mb ) Visibility ( mi km ) Precip ( " mm )
12:59 am 00:59 Clear 26 -3.3 5 -15 40 40 NNW 28 44 30.04 1017 10 16 0.00 0.00
1:59 am 01:59 Clear 25 -3.9 8 -13.3 48 48 NNW 17 28 30.06 1018 10 16 0.00 0.00
2:59 am 02:59 Clear 24 -4.4 6 -14.4 46 46 NNW 22 35 30.09 1019 10 16 0.00 0.00
3:59 am 03:59 Clear 22 -5.6 6 -14.4 50 50 NW 18 30 30.12 1020 10 16 0.00 0.00
4:59 am 04:59 Clear 21 -6.1 3 -16.1 45 45 NW 20 31 30.16 1021 10 16 0.00 0.00
5:59 am 05:59 Mostly Clear 20 -6.7 3 -16.1 48 48 NW 17 28 30.20 1023 10 16 0.00 0.00
6:59 am 06:59 Mostly Clear 20 -6.7 1 -17.2 43 43 NW 18 30 30.24 1024 10 16 0.00 0.00
7:59 am 07:59 Mostly Sunny 21 -6.1 1 -17.2 41 41 WNW 21 33 30.26 1025 10 16 0.00 0.00
8:59 am 08:59 Mostly Sunny 21 -6.1 -1 -18.3 38 38 NW 24 39 30.31 1026 10 16 0.00 0.00
9:59 am 09:59 Mostly Sunny 23 -5 -2 -18.9 33 33 NW 20 31 30.34 1027 10 16 0.00 0.00
10:59 am 10:59 Mostly Sunny 24 -4.4 -1 -18.3 33 33 NW 23 37 30.35 1028 10 16 0.00 0.00
11:59 am 11:59 Mostly Sunny 25 -3.9 0 -17.8 33 33 WNW 23 37 30.35 1028 10 16 0.00 0.00
12:59 pm 12:59 Mostly Sunny 27 -2.8 -2 -18.9 28 28 WNW 21 33 30.35 1028 10 16 0.00 0.00
1:59 pm 13:59 Mostly Sunny 27 -2.8 -3 -19.4 27 27 NW 21 33 30.35 1028 10 16 0.00 0.00
2:59 pm 14:59 Mostly Sunny 28 -2.2 -5 -20.6 23 23 WNW 23 37 30.37 1028 10 16 0.00 0.00
3:59 pm 15:59 Sunny 28 -2.2 -3 -19.4 26 26 NW 22 35 30.40 1030 10 16 0.00 0.00
4:59 pm 16:59 Sunny 27 -2.8 -3 -19.4 27 27 WNW 18 30 30.42 1030 10 16 0.00 0.00
5:59 pm 17:59 Clear 26 -3.3 -4 -20 26 26 NW 17 28 30.45 1031 10 16 0.00 0.00
6:59 pm 18:59 Clear 26 -3.3 -3 -19.4 28 28 NW 15 24 30.49 1032 10 16 0.00 0.00
7:59 pm 19:59 Clear 26 -3.3 -3 -19.4 28 28 NW 20 31 30.51 1033 10 16 0.00 0.00
8:59 pm 20:59 Clear 25 -3.9 1 -17.2 35 35 NNW 15 24 30.54 1034 10 16 0.00 0.00
9:59 pm 21:59 Clear 24 -4.4 1 -17.2 36 36 NNW 16 26 30.56 1035 10 16 0.00 0.00
10:59 pm 22:59 Clear 23 -5 2 -16.7 40 40 NNW 16 26 30.58 1036 10 16 0.00 0.00
11:59 pm 23:59 Clear 24 -4.4 3 -16.1 40 40 N 17 28 30.59 1036 10 16 0.00 0.00

Powered by AerisWeather